• Join FlightAware (Why Join?)
  • Login
  • US Flag GB Flag 
23:48 EDT


 

Airport Tracker/Info


-or-


 

Live Flight TrackerFlight Track Log ✈ ASQ5740 ✈ 29-Mar-2014 ✈ KCHS - KORD

Flight Track Log - Related Links

Times and Time Zones

All times are in EDT time to prevent confusion due to time zone crossing. See the ASQ5740 flight status page for this flight to view local times or setup timezone preferences in your user account.

Time Position Orientation Groundspeed Altitude Reporting Facility
EDT Latitude Longitude Course Direction KTS MPH feet Rate Location/Type
18:37 32.8806 -79.9936 63° Northeast 224 258 3,800  Level Jacksonville Center
18:38 32.9314 -80.0167 339° North 184 212 6,100 2,160 Climbing Jacksonville Center
18:39 33.3136 -80.2402 337° Northwest  Level FlightAware Approximate
18:39 32.9864 -80.0497 333° Northwest 181 208 8,200  Level Jacksonville Center
18:40 33.3928 -80.3392 309° West  Level FlightAware Approximate
18:40 33.0519 -80.0897 333° Northwest 223 257 9,500  Level Jacksonville Center
18:41 33.4711 -80.4423 301° West  Level FlightAware Approximate
18:41 33.1258 -80.1294 336° Northwest 314 361 10,200  Level Jacksonville Center
18:42 33.5378 -80.5567 309° West  Level FlightAware Approximate
18:42 33.2167 -80.1839 333° Northwest 339 390 10,800  Level Jacksonville Center
18:43 33.3139 -80.2431 333° Northwest 366 421 11,700 1,200 Climbing Jacksonville Center
18:44 33.4133 -80.2997 335° Northwest 384 442 13,200 1,440 Climbing Jacksonville Center
18:45 33.5106 -80.3567 334° Northwest 389 448 14,600 1,320 Climbing Jacksonville Center
18:46 33.6075 -80.4136 334° Northwest 389 448 15,900 1,380 Climbing Jacksonville Center
18:47 33.7047 -80.4708 334° Northwest 389 448 17,400 1,320 Climbing Jacksonville Center
18:48 33.8017 -80.5258 335° Northwest 389 448 18,600 1,080 Climbing Jacksonville Center
18:49 33.9008 -80.5831 334° Northwest 389 448 19,600 1,020 Climbing Jacksonville Center
18:50 33.9978 -80.6406 334° Northwest 389 448 20,700 960 Climbing Jacksonville Center
18:51 34.0969 -80.7008 333° Northwest 389 448 21,600 900 Climbing Jacksonville Center
18:52 34.1981 -80.7586 335° Northwest 389 448 22,600 1,080 Climbing Jacksonville Center
18:53 34.2931 -80.8267 329° Northwest 389 448 23,800 1,140 Climbing Jacksonville Center
18:54 34.3900 -80.8897 332° Northwest 395 455 24,900 1,080 Climbing Jacksonville Center
18:56 34.5561 -81.0097 329° Northwest 394 453 26,700 1,020 Climbing Atlanta Center
18:57 34.6456 -81.0772 328° Northwest 394 453 27,700 960 Climbing Atlanta Center
18:58 34.7369 -81.1497 327° Northwest 388 447 28,700 840 Climbing Atlanta Center
18:59 34.8283 -81.2175 329° Northwest 388 447 29,400 600 Climbing Atlanta Center
19:00 34.9217 -81.2878 328° Northwest 388 447 29,900 300 Climbing Atlanta Center
19:01 35.0153 -81.3633 327° Northwest 395 455 30,000  Climbing Atlanta Center
19:02 35.1169 -81.4411 328° Northwest 410 472 30,000  Level Atlanta Center
19:03 35.2208 -81.5192 328° Northwest 430 495 30,000  Level Atlanta Center
19:04 35.3164 -81.5928 328° Northwest 436 502 30,000  Level Atlanta Center
19:05 35.4222 -81.6789 326° Northwest 453 521 30,000  Level Atlanta Center
19:06 35.5303 -81.7600 329° Northwest 453 521 30,000  Level Atlanta Center
19:07 35.6381 -81.8439 328° Northwest 453 521 30,000  Level Atlanta Center
19:08 35.7481 -81.9253 329° Northwest 453 521 30,000  Level Atlanta Center
19:09 35.8558 -82.0122 327° Northwest 458 527 30,000  Level Atlanta Center
19:10 35.9617 -82.0967 327° Northwest 458 527 30,000  Level Atlanta Center
19:11 36.0733 -82.1814 328° Northwest 463 533 30,000  Level Atlanta Center
19:12 36.1769 -82.2664 326° Northwest 454 522 30,000  Level Atlanta Center
19:13 36.2844 -82.3517 327° Northwest 448 516 30,000  Level Atlanta Center
19:14 36.3961 -82.4394 328° Northwest 455 524 30,000  Level Atlanta Center
19:16 36.6161 -82.6147 327° Northwest 469 540 30,000  Level Indianapolis Center
19:17 36.7267 -82.7042 327° Northwest 470 541 30,000  Level Indianapolis Center
19:18 36.8375 -82.7939 327° Northwest 471 542 30,000  Level Indianapolis Center
19:19 36.9519 -82.8881 327° Northwest 472 543 30,000  Level Indianapolis Center
19:20 37.0522 -82.9692 327° Northwest 472 543 30,000  Level Indianapolis Center
19:21 37.1625 -83.0597 327° Northwest 473 544 30,000  Level Indianapolis Center
19:22 37.2925 -83.1664 327° Northwest 474 545 30,000  Level Indianapolis Center
19:23 37.4033 -83.2581 327° Northwest 474 545 30,000  Level Indianapolis Center
19:24 37.5150 -83.3503 327° Northwest 475 547 30,000  Level Indianapolis Center
19:25 37.6267 -83.4433 327° Northwest 476 548 30,000  Level Indianapolis Center
19:26 37.7375 -83.5347 327° Northwest 476 548 30,000  Level Indianapolis Center
19:27 37.8481 -83.6281 326° Northwest 476 548 30,000  Level Indianapolis Center
19:28 37.9594 -83.7211 327° Northwest 476 548 30,000  Level Indianapolis Center
19:29 38.0711 -83.8139 327° Northwest 477 549 30,000  Level Indianapolis Center
19:30 38.1881 -83.8961 331° Northwest 478 550 30,000  Level Indianapolis Center
19:31 38.3044 -83.9833 330° Northwest 479 551 30,000  Level Indianapolis Center
19:32 38.4197 -84.0714 329° Northwest 481 554 30,000  Level Indianapolis Center
19:33 38.5564 -84.1728 330° Northwest 483 556 30,000  Level Indianapolis Center
19:34 38.6517 -84.2436 330° Northwest 484 557 30,000  Level Indianapolis Center
19:35 38.7919 -84.3508 329° Northwest 486 559 30,000  Level Indianapolis Center
19:36 38.9094 -84.4389 330° Northwest 486 559 30,000 -120 Level Indianapolis Center
19:37 39.0261 -84.5289 329° Northwest 488 562 29,800 -600 Descending Indianapolis Center
19:38 39.1422 -84.6169 330° Northwest 487 560 28,800 -900 Descending Indianapolis Center
19:39 39.2528 -84.7025 329° Northwest 471 542 28,000 -420 Descending Indianapolis Center
19:40 39.3614 -84.7872 329° Northwest 460 529 28,000  Level Indianapolis Center
19:41 39.4703 -84.8708 329° Northwest 458 527 28,000  Level Indianapolis Center
19:42 39.5914 -84.9642 329° Northwest 457 526 28,000  Level Indianapolis Center
19:43 39.7011 -85.0500 329° Northwest 457 526 28,000  Level Indianapolis Center
19:44 39.8119 -85.1369 329° Northwest 462 532 28,000  Level Indianapolis Center
19:45 39.9228 -85.2233 329° Northwest 463 533 28,000  Level Indianapolis Center
19:46 40.0339 -85.3119 329° Northwest 465 535 28,000 -480 Level Indianapolis Center
19:47 40.1444 -85.3983 329° Northwest 465 535 27,100 -900 Descending Indianapolis Center
19:48 40.2508 -85.4833 329° Northwest 459 528 26,200 -600 Descending Indianapolis Center
19:49 40.3539 -85.5658 329° Northwest 445 512 26,000 -540 Descending Indianapolis Center
19:50 40.4161 -85.6142 329° Northwest 444 511 25,400 -1,140 Descending Chicago Center
19:51 40.5222 -85.6883 332° Northwest 441 507 24,300 -720 Descending Chicago Center
19:52 40.5989 -85.7936 314° West 415 478 24,000 -180 Descending Chicago Center
19:53 40.6667 -85.9175 306° West 419 482 24,000  Level Chicago Center
19:54 40.7408 -86.0528 306° West 415 478 24,000  Level Chicago Center
19:55 40.8067 -86.1719 306° West 406 467 24,000  Level Chicago Center
19:56 40.8744 -86.2928 307° West 406 467 24,000  Level Chicago Center
19:57 40.9394 -86.4128 306° West 405 466 24,000 -720 Level Chicago Center
19:58 41.0039 -86.5308 306° West 397 457 22,600 -1,980 Descending Chicago Center
19:59 41.0650 -86.6419 306° West 375 432 20,000 -2,700 Descending Chicago Center
20:00 41.1306 -86.7581 307° West 342 394 17,200 -2,640 Descending Chicago Center
20:01 41.1878 -86.8667 305° West 333 383 14,700 -2,220 Descending Chicago Center
20:02 41.2425 -86.9650 307° West 331 381 12,700 -1,860 Descending Chicago Center
20:03 41.2950 -87.0600 306° West 320 368 11,000 -840 Descending Chicago Center
20:04 41.3503 -87.1647 305° West 321 369 11,000  Level Chicago Center
20:05 41.4117 -87.2472 315° West 317 365 11,000  Level Chicago Center
20:06 41.4753 -87.3231 318° Northwest 310 357 11,000  Level Chicago Center
20:07 41.5431 -87.3947 322° Northwest 309 356 11,000  Level Chicago Center
20:08 41.6200 -87.4625 327° Northwest 309 356 11,000 -60 Level Chicago Center
20:09 41.6883 -87.5325 323° Northwest 310 357 10,900 -540 Descending Chicago Center
20:10 41.7522 -87.6069 319° Northwest 309 356 10,000 -480 Descending Chicago Center
20:11 41.8214 -87.6850 320° Northwest 305 351 10,000 -720 Level Chicago Center
20:12 41.8628 -87.7639 305° West 259 298 8,600 -1,380 Descending Chicago Center
20:13 41.8728 -87.8608 278° West 263 303 7,200 -840 Descending Chicago Center
20:14 41.8828 -87.9647 277° West 262 302 7,000 -1,020 Descending Chicago Center
20:15 41.8844 -88.0583 271° West 258 297 5,200 -1,440 Descending Chicago Center
20:16 41.9061 -88.1331 291° West 243 280 4,100 -840 Descending Chicago Center
20:17 41.9581 -88.1072 20° North 204 235 3,500 -840 Descending Chicago Center
20:18 41.9667 -88.0500 79° East 182 209 2,500 -1,020 Descending Chicago TRACON
20:19 41.9667 -88.0000 90° East 145 167 1,700 -900 Descending Chicago TRACON
20:20 41.9667 -87.9333 90° East 137 158 900 -840 Descending Chicago TRACON